Home   Weather   Port Said   Past weeks

Flag for Egypt Past Weather in Port Said, Egypt — Yesterday and Last 2 Weeks

Now
63 °F

Clear.


Feels Like: 63 °F
Forecast: 59 / 65 °F
Wind: 13 mph from Northeast

Location: Port Said Airport

Current Time: Feb 24, 2017 at 7:40:46 pm

Latest Report: Feb 24, 2017 at 6:00 pm


Visibility: 10 mi

Pressure: 30.21 "Hg

Humidity: 77%

Dew Point: 55 °F

Location of Port SaidLocation

Past Weather in Port Said — Graph

°F

Port Said Temperature Yesterday

Maximum temperature yesterday: 64 °F (at 12:00 pm)
Minimum temperature yesterday: 57 °F (at 2:00 am)
Average temperature yesterday: 61 °F

High & Low Weather Summary for the Past Weeks

 TemperatureHumidityPressure
High68 °F (Feb 24, 1:00 pm)94% (Feb 10, 1:00 am)30.36 "Hg (Feb 10, 1:00 am)
Low50 °F (Feb 15, 5:00 am)48% (Feb 15, 7:00 pm)29.95 "Hg (Feb 11, 2:00 pm)
Average58 °F72%30.13 "Hg
* Reported Feb 9 6:00 pm — Feb 24 6:00 pm, Port Said, Weather by CustomWeather, © 2017

Note: Actual official high and low records may vary slightly from our data, if they occured in-between our weather recording intervals... More about our weather records

Advertising

Port Said Weather History for the Previous 24 Hours

Scroll right to see more
 ConditionsComfort  
Time TempWeatherWind HumidityBarometerVisibility
6:00 pm
Fri, Feb 24
63 °FClear.13 mph77%30.21 "Hg10 mi
5:00 pm64 °FSunny.7 mph73%30.21 "Hg10 mi
4:00 pm64 °FSunny.10 mph73%30.21 "Hg10 mi
3:00 pm64 °FPassing clouds.12 mph73%30.21 "HgN/A
2:00 pm66 °FPassing clouds.6 mph68%30.24 "HgN/A
1:00 pm68 °FPassing clouds.10 mph60%30.24 "HgN/A
12:00 pm66 °FPassing clouds.9 mph68%30.27 "HgN/A
11:00 am66 °FPassing clouds.7 mph64%30.27 "HgN/A
10:00 am64 °FPassing clouds.7 mph68%30.27 "HgN/A
9:00 am63 °FScattered clouds.6 mph77%30.27 "HgN/A
8:00 am61 °FScattered clouds.7 mph77%30.27 "HgN/A
7:00 am59 °FScattered clouds.12 mph77%30.24 "HgN/A
6:00 am59 °FClear.9 mph77%30.24 "Hg10 mi
5:00 am59 °FClear.8 mph77%30.24 "Hg10 mi
4:00 am59 °FClear.8 mph72%30.24 "Hg10 mi
3:00 am57 °FClear.7 mph82%30.24 "Hg10 mi
2:00 am59 °FClear.8 mph77%30.24 "Hg10 mi
1:00 am61 °FClear.7 mph77%30.24 "Hg10 mi
12:00 am61 °FClear.6 mph77%30.24 "Hg10 mi
11:00 pm
Thu, Feb 23
61 °FClear.7 mph77%30.24 "Hg10 mi
10:00 pm61 °FClear.10 mph77%30.24 "Hg10 mi
9:00 pm61 °FPassing clouds.10 mph77%30.24 "HgN/A
8:00 pm61 °FPassing clouds.12 mph72%30.24 "HgN/A
7:00 pm64 °FClear.12 mph56%30.09 "Hg10 mi
Weather by CustomWeather, © 2017

See weather overviewHow to use our weather pages